| time (UTC) | temp F | wind direction | speed MPH | gust MPH | rain 1hr in | rain 24hr in | rain mn in | humidity % | barometer mb |
| 20260903190504 | 92 | 130 | 2.0 | 9.0 | 0.00 | 0.18 | 0.18 | 57 | 1012.4 |
| 20260903185503 | 93 | 225 | 0.0 | 3.0 | 0.00 | 0.18 | 0.18 | 59 | 1012.8 |
| 20260903185004 | 93 | 239 | 1.0 | 4.0 | 0.00 | 0.18 | 0.18 | 60 | 1013.0 |
| 20260903184504 | 94 | 213 | 2.0 | 6.0 | 0.00 | 0.18 | 0.18 | 58 | 1013.0 |
| 20260903184004 | 94 | 197 | 2.0 | 6.0 | 0.00 | 0.18 | 0.18 | 57 | 1013.1 |
| 20260903183006 | 95 | 226 | 1.0 | 5.0 | 0.00 | 0.18 | 0.18 | 57 | 1013.2 |
| 20260903182504 | 96 | 243 | 1.0 | 6.0 | 0.00 | 0.18 | 0.18 | 55 | 1013.3 |
| 20260903182005 | 96 | 239 | 1.0 | 6.0 | 0.00 | 0.18 | 0.18 | 57 | 1013.4 |
| 20260903181504 | 96 | 233 | 2.0 | 5.0 | 0.00 | 0.18 | 0.18 | 58 | 1013.3 |
| 20260903181004 | 95 | 231 | 2.0 | 7.0 | 0.00 | 0.18 | 0.18 | 57 | 1013.3 |
| 20260903180004 | 95 | 237 | 2.0 | 7.0 | 0.00 | 0.18 | 0.18 | 58 | 1013.4 |
| 20260903175504 | 95 | 243 | 2.0 | 7.0 | 0.00 | 0.18 | 0.18 | 58 | 1013.5 |
| 20260903174504 | 94 | 232 | 1.0 | 7.0 | 0.00 | 0.18 | 0.18 | 59 | 1013.7 |
| 20260903173504 | 93 | 233 | 2.0 | 6.0 | 0.00 | 0.18 | 0.18 | 61 | 1014.0 |
| 20260903173004 | 93 | 212 | 1.0 | 6.0 | 0.00 | 0.18 | 0.18 | 63 | 1014.0 |
| 20260903172503 | 92 | 213 | 2.0 | 7.0 | 0.00 | 0.18 | 0.18 | 63 | 1014.1 |
| 20260903171005 | 92 | 247 | 1.0 | 7.0 | 0.00 | 0.18 | 0.18 | 63 | 1014.2 |
| 20260903170004 | 91 | 240 | 0.0 | 3.0 | 0.00 | 0.18 | 0.18 | 65 | 1014.4 |
| 20260903164504 | 90 | 238 | 3.0 | 10.0 | 0.00 | 0.18 | 0.18 | 64 | 1014.5 |
| 20260903164005 | 90 | 235 | 2.0 | 10.0 | 0.00 | 0.18 | 0.18 | 65 | 1014.6 |
| 20260903163503 | 89 | 233 | 1.0 | 5.0 | 0.00 | 0.18 | 0.18 | 67 | 1014.7 |
| 20260903163005 | 88 | 226 | 2.0 | 6.0 | 0.00 | 0.18 | 0.18 | 69 | 1014.8 |
| 20260903162504 | 88 | 227 | 2.0 | 9.0 | 0.00 | 0.18 | 0.18 | 69 | 1014.7 |
| 20260903162004 | 87 | 229 | 2.0 | 9.0 | 0.00 | 0.18 | 0.18 | 70 | 1014.7 |
| 20260903161504 | 86 | 232 | 3.0 | 9.0 | 0.00 | 0.18 | 0.18 | 70 | 1014.6 |
| 20260903161004 | 86 | 243 | 2.0 | 7.0 | 0.00 | 0.18 | 0.18 | 72 | 1014.6 |
| 20260903160504 | 86 | 230 | 2.0 | 6.0 | 0.00 | 0.18 | 0.18 | 73 | 1014.7 |
| 20260903160008 | 86 | 222 | 2.0 | 6.0 | 0.00 | 0.18 | 0.18 | 72 | 1014.7 |
| 20260903155504 | 85 | 237 | 2.0 | 7.0 | 0.00 | 0.18 | 0.18 | 75 | 1014.9 |
| 20260903155004 | 85 | 239 | 2.0 | 7.0 | 0.00 | 0.18 | 0.18 | 75 | 1014.8 |
| 20260903154504 | 84 | 236 | 3.0 | 8.0 | 0.00 | 0.18 | 0.18 | 76 | 1014.8 |
| 20260903154004 | 84 | 232 | 2.0 | 8.0 | 0.00 | 0.18 | 0.18 | 77 | 1014.8 |
| 20260903153504 | 83 | 232 | 1.0 | 6.0 | 0.00 | 0.18 | 0.18 | 79 | 1014.9 |
| 20260903153004 | 82 | 235 | 1.0 | 6.0 | 0.00 | 0.18 | 0.18 | 80 | 1014.7 |
| 20260903152503 | 82 | 233 | 1.0 | 4.0 | 0.00 | 0.18 | 0.18 | 81 | 1014.9 |
| 20260903152004 | 81 | 230 | 1.0 | 4.0 | 0.00 | 0.18 | 0.18 | 82 | 1014.8 |
| 20260903151504 | 80 | 245 | 2.0 | 5.0 | 0.00 | 0.18 | 0.18 | 84 | 1014.7 |
| 20260903151004 | 79 | 248 | 2.0 | 5.0 | 0.00 | 0.18 | 0.18 | 85 | 1014.8 |
| 20260903150504 | 79 | 243 | 1.0 | 5.0 | 0.00 | 0.18 | 0.18 | 87 | 1014.8 |
| 20260903150005 | 78 | 239 | 1.0 | 4.0 | 0.00 | 0.18 | 0.18 | 89 | 1014.9 |
| 20260903145503 | 78 | 240 | 1.0 | 4.0 | 0.00 | 0.18 | 0.18 | 89 | 1014.9 |
| 20260903145005 | 77 | 246 | 1.0 | 4.0 | 0.00 | 0.18 | 0.18 | 90 | 1014.8 |
| 20260903144005 | 77 | 238 | 2.0 | 4.0 | 0.00 | 0.18 | 0.18 | 91 | 1014.9 |
| 20260903143503 | 76 | 221 | 1.0 | 4.0 | 0.00 | 0.18 | 0.18 | 92 | 1015.0 |
| 20260903143005 | 76 | 195 | 1.0 | 4.0 | 0.00 | 0.18 | 0.18 | 92 | 1015.0 |
| 20260903142503 | 76 | 131 | 1.0 | 3.0 | 0.00 | 0.18 | 0.18 | 92 | 1015.1 |
| 20260903142005 | 75 | 203 | 1.0 | 5.0 | 0.00 | 0.18 | 0.18 | 92 | 1015.1 |
| 20260903141503 | 75 | 229 | 1.0 | 5.0 | 0.00 | 0.18 | 0.18 | 92 | 1015.0 |
| 20260903141005 | 75 | 241 | 1.0 | 4.0 | 0.00 | 0.18 | 0.18 | 92 | 1014.9 |
| 20260903140503 | 74 | 244 | 0.0 | 4.0 | 0.00 | 0.18 | 0.18 | 92 | 1014.9 |
| 20260903140005 | 74 | 0 | 0.0 | 0.0 | 0.00 | 0.18 | 0.18 | 92 | 1015.0 |
| 20260903135504 | 74 | 0 | 0.0 | 0.0 | 0.00 | 0.18 | 0.18 | 92 | 1014.9 |
| 20260903135004 | 73 | 0 | 0.0 | 0.0 | 0.00 | 0.18 | 0.18 | 92 | 1014.9 |
| 20260903134504 | 73 | 0 | 0.0 | 0.0 | 0.00 | 0.18 | 0.18 | 92 | 1014.9 |
| 20260903134004 | 73 | 0 | 0.0 | 0.0 | 0.00 | 0.18 | 0.18 | 92 | 1015.0 |
| 20260903133504 | 73 | 0 | 0.0 | 0.0 | 0.00 | 0.18 | 0.18 | 92 | 1015.0 |
| 20260903132503 | 72 | 0 | 0.0 | 0.0 | 0.00 | 0.18 | 0.18 | 91 | 1015.0 |
| 20260903132005 | 72 | 0 | 0.0 | 0.0 | 0.00 | 0.18 | 0.18 | 91 | 1015.1 |
| 20260903131504 | 72 | 236 | 0.0 | 1.0 | 0.00 | 0.18 | 0.18 | 91 | 1015.1 |
| 20260903131004 | 72 | 236 | 0.0 | 1.0 | 0.00 | 0.18 | 0.18 | 91 | 1015.2 |
| 20260903130504 | 72 | 0 | 0.0 | 0.0 | 0.00 | 0.18 | 0.18 | 91 | 1015.2 |
| 20260903130004 | 72 | 0 | 0.0 | 0.0 | 0.00 | 0.18 | 0.18 | 91 | 1015.2 |
| 20260903125503 | 72 | 0 | 0.0 | 0.0 | 0.00 | 0.18 | 0.18 | 90 | 1015.2 |
| 20260903125005 | 71 | 237 | 0.0 | 2.0 | 0.00 | 0.18 | 0.18 | 90 | 1015.2 |
| 20260903124004 | 71 | 239 | 0.0 | 2.0 | 0.01 | 0.18 | 0.18 | 90 | 1015.3 |
| 20260903123504 | 71 | 239 | 0.0 | 2.0 | 0.05 | 0.18 | 0.18 | 90 | 1015.4 |
| 20260903123005 | 71 | 0 | 0.0 | 0.0 | 0.09 | 0.18 | 0.18 | 89 | 1015.4 |
| 20260903122503 | 71 | 0 | 0.0 | 0.0 | 0.17 | 0.18 | 0.18 | 89 | 1015.4 |
| 20260903122005 | 71 | 0 | 0.0 | 0.0 | 0.18 | 0.18 | 0.18 | 89 | 1015.3 |
| 20260903121503 | 71 | 0 | 0.0 | 0.0 | 0.18 | 0.18 | 0.18 | 88 | 1015.2 |
| 20260903121005 | 71 | 56 | 0.0 | 3.0 | 0.18 | 0.18 | 0.18 | 88 | 1015.0 |
| 20260903120503 | 71 | 96 | 1.0 | 4.0 | 0.18 | 0.18 | 0.18 | 87 | 1015.0 |
| 20260903120005 | 71 | 103 | 1.0 | 4.0 | 0.18 | 0.18 | 0.18 | 87 | 1014.9 |
| 20260903115503 | 72 | 61 | 1.0 | 4.0 | 0.18 | 0.18 | 0.18 | 86 | 1015.2 |
| 20260903115005 | 72 | 149 | 1.0 | 4.0 | 0.18 | 0.18 | 0.18 | 86 | 1015.5 |
| 20260903114504 | 72 | 174 | 1.0 | 5.0 | 0.18 | 0.18 | 0.18 | 85 | 1015.4 |
| 20260903113504 | 73 | 190 | 1.0 | 4.0 | 0.13 | 0.13 | 0.13 | 83 | 1015.7 |
| 20260903113005 | 73 | 236 | 0.0 | 4.0 | 0.09 | 0.09 | 0.09 | 82 | 1015.7 |
| 20260903112504 | 73 | 0 | 0.0 | 0.0 | 0.01 | 0.01 | 0.01 | 81 | 1015.8 |
| 20260903112004 | 73 | 0 | 0.0 | 0.0 | 0.00 | 0.00 | 0.00 | 80 | 1015.8 |
| 20260903111504 | 74 | 0 | 0.0 | 0.0 | 0.00 | 0.00 | 0.00 | 79 | 1015.9 |
| 20260903111004 | 74 | 0 | 0.0 | 0.0 | 0.00 | 0.00 | 0.00 | 78 | 1015.7 |
| 20260903110504 | 74 | 0 | 0.0 | 0.0 | 0.00 | 0.00 | 0.00 | 78 | 1015.5 |
| 20260903110004 | 74 | 0 | 0.0 | 0.0 | 0.00 | 0.00 | 0.00 | 78 | 1015.3 |
| 20260903105503 | 74 | 0 | 0.0 | 0.0 | 0.00 | 0.00 | 0.00 | 78 | 1015.2 |
| 20260903105005 | 74 | 120 | 0.0 | 2.0 | 0.00 | 0.00 | 0.00 | 78 | 1015.3 |
| 20260903104503 | 74 | 123 | 1.0 | 3.0 | 0.00 | 0.00 | 0.00 | 78 | 1015.2 |
| 20260903103504 | 74 | 295 | 2.0 | 7.0 | 0.00 | 0.00 | 0.00 | 79 | 1015.4 |
| 20260903103005 | 74 | 85 | 2.0 | 8.0 | 0.00 | 0.00 | 0.00 | 79 | 1015.4 |
| 20260903102504 | 74 | 86 | 3.0 | 8.0 | 0.00 | 0.00 | 0.00 | 79 | 1015.2 |
| 20260903102005 | 75 | 77 | 3.0 | 10.0 | 0.00 | 0.00 | 0.00 | 81 | 1015.6 |
| 20260903101004 | 75 | 354 | 1.0 | 4.0 | 0.00 | 0.00 | 0.00 | 85 | 1015.3 |
| 20260903100004 | 75 | 0 | 0.0 | 0.0 | 0.00 | 0.00 | 0.00 | 85 | 1014.4 |
| 20260903095503 | 75 | 0 | 0.0 | 0.0 | 0.00 | 0.00 | 0.00 | 85 | 1014.4 |
| 20260903094503 | 75 | 0 | 0.0 | 0.0 | 0.00 | 0.00 | 0.00 | 84 | 1014.3 |
| 20260903094004 | 75 | 0 | 0.0 | 0.0 | 0.00 | 0.00 | 0.00 | 85 | 1014.3 |
| 20260903093504 | 75 | 0 | 0.0 | 0.0 | 0.00 | 0.00 | 0.00 | 84 | 1014.2 |
| 20260903093005 | 75 | 0 | 0.0 | 0.0 | 0.00 | 0.00 | 0.00 | 84 | 1014.0 |
| 20260903092503 | 75 | 293 | 0.0 | 2.0 | 0.00 | 0.00 | 0.00 | 84 | 1013.9 |
| 20260903091504 | 75 | 298 | 1.0 | 3.0 | 0.00 | 0.00 | 0.00 | 83 | 1014.1 |
| 20260903091004 | 75 | 300 | 1.0 | 3.0 | 0.00 | 0.00 | 0.00 | 82 | 1014.1 |
| 20260903090504 | 75 | 302 | 0.0 | 2.0 | 0.00 | 0.00 | 0.00 | 80 | 1014.1 |
| 20260903090004 | 75 | 0 | 0.0 | 0.0 | 0.00 | 0.00 | 0.00 | 79 | 1014.1 |
| 20260903085503 | 75 | 0 | 0.0 | 0.0 | 0.00 | 0.00 | 0.00 | 79 | 1014.0 |
| 20260903084504 | 75 | 0 | 0.0 | 0.0 | 0.00 | 0.00 | 0.00 | 79 | 1013.9 |
| 20260903084005 | 76 | 0 | 0.0 | 0.0 | 0.00 | 0.00 | 0.00 | 79 | 1013.9 |
| 20260903083005 | 76 | 0 | 0.0 | 0.0 | 0.00 | 0.00 | 0.00 | 78 | 1013.9 |
| 20260903082503 | 76 | 0 | 0.0 | 0.0 | 0.00 | 0.00 | 0.00 | 77 | 1013.9 |
| 20260903082005 | 76 | 304 | 0.0 | 1.0 | 0.00 | 0.00 | 0.00 | 77 | 1014.0 |
| 20260903081503 | 76 | 304 | 0.0 | 1.0 | 0.00 | 0.00 | 0.00 | 77 | 1013.9 |
| 20260903081004 | 76 | 0 | 0.0 | 0.0 | 0.00 | 0.00 | 0.00 | 77 | 1014.0 |
| 20260903080504 | 77 | 0 | 0.0 | 0.0 | 0.00 | 0.00 | 0.00 | 76 | 1014.1 |
| 20260903080004 | 77 | 0 | 0.0 | 0.0 | 0.00 | 0.00 | 0.00 | 76 | 1014.1 |
| 20260903075504 | 77 | 0 | 0.0 | 0.0 | 0.00 | 0.00 | 0.00 | 75 | 1014.3 |
| 20260903075004 | 77 | 0 | 0.0 | 0.0 | 0.00 | 0.00 | 0.00 | 74 | 1014.4 |
| 20260903074504 | 78 | 0 | 0.0 | 0.0 | 0.00 | 0.00 | 0.00 | 74 | 1014.4 |
| 20260903074004 | 78 | 0 | 0.0 | 0.0 | 0.00 | 0.00 | 0.00 | 74 | 1014.4 |
| 20260903073503 | 78 | 0 | 0.0 | 0.0 | 0.00 | 0.00 | 0.00 | 74 | 1014.1 |
| 20260903073004 | 78 | 0 | 0.0 | 0.0 | 0.00 | 0.00 | 0.00 | 73 | 1014.1 |
| 20260903072503 | 78 | 0 | 0.0 | 0.0 | 0.00 | 0.00 | 0.00 | 73 | 1014.1 |
| 20260903072004 | 79 | 0 | 0.0 | 0.0 | 0.00 | 0.00 | 0.00 | 73 | 1014.0 |
| 20260903071503 | 79 | 0 | 0.0 | 0.0 | 0.00 | 0.00 | 0.00 | 74 | 1014.1 |
| 20260903071005 | 79 | 0 | 0.0 | 0.0 | 0.00 | 0.00 | 0.00 | 74 | 1014.2 |
| 20260903070503 | 79 | 304 | 0.0 | 2.0 | 0.00 | 0.00 | 0.00 | 75 | 1014.2 |
| 20260903070004 | 79 | 304 | 0.0 | 2.0 | 0.00 | 0.00 | 0.00 | 75 | 1014.3 |
| 20260903065504 | 80 | 0 | 0.0 | 0.0 | 0.00 | 0.00 | 0.00 | 76 | 1014.4 |
| 20260903065004 | 80 | 302 | 0.0 | 2.0 | 0.00 | 0.00 | 0.00 | 76 | 1014.5 |
| 20260903064504 | 80 | 302 | 0.0 | 3.0 | 0.00 | 0.00 | 0.00 | 77 | 1014.5 |
| 20260903064004 | 80 | 302 | 0.0 | 3.0 | 0.00 | 0.00 | 0.00 | 77 | 1014.7 |
| 20260903063505 | 80 | 302 | 0.0 | 3.0 | 0.00 | 0.00 | 0.00 | 77 | 1014.6 |
| 20260903063005 | 80 | 296 | 1.0 | 4.0 | 0.00 | 0.00 | 0.00 | 77 | 1014.7 |
| 20260903062504 | 80 | 302 | 2.0 | 6.0 | 0.00 | 0.00 | 0.00 | 77 | 1014.7 |
| 20260903062005 | 80 | 310 | 2.0 | 6.0 | 0.00 | 0.00 | 0.00 | 77 | 1014.7 |
| 20260903061004 | 80 | 348 | 1.0 | 5.0 | 0.00 | 0.00 | 0.00 | 76 | 1014.5 |
| 20260903060504 | 80 | 312 | 0.0 | 3.0 | 0.00 | 0.00 | 0.00 | 76 | 1014.1 |
| 20260903060005 | 81 | 262 | 0.0 | 2.0 | 0.00 | 0.00 | 0.00 | 76 | 1014.0 |
| 20260903055503 | 81 | 278 | 0.0 | 3.0 | 0.00 | 0.00 | 0.00 | 76 | 1014.0 |
| 20260903055004 | 81 | 276 | 0.0 | 3.0 | 0.00 | 0.00 | 0.00 | 76 | 1014.2 |
| 20260903054504 | 81 | 234 | 1.0 | 3.0 | 0.00 | 0.00 | 0.00 | 76 | 1014.1 |
| 20260903054005 | 81 | 234 | 1.0 | 4.0 | 0.00 | 0.00 | 0.00 | 76 | 1014.1 |
| 20260903053504 | 81 | 235 | 1.0 | 4.0 | 0.00 | 0.00 | 0.00 | 75 | 1014.0 |
| 20260903052004 | 81 | 237 | 1.0 | 3.0 | 0.00 | 0.00 | 0.00 | 75 | 1014.0 |
| 20260903051504 | 81 | 238 | 1.0 | 4.0 | 0.00 | 0.00 | 0.00 | 75 | 1013.9 |
| 20260903051004 | 81 | 240 | 1.0 | 4.0 | 0.00 | 0.00 | 0.00 | 75 | 1013.8 |
| 20260903050504 | 81 | 251 | 1.0 | 4.0 | 0.00 | 0.00 | 0.00 | 75 | 1013.7 |
| 20260903045503 | 81 | 240 | 2.0 | 6.0 | 0.00 | 0.00 | 0.00 | 75 | 1013.5 |
| 20260903045005 | 81 | 225 | 2.0 | 5.0 | 0.00 | 0.00 | 0.00 | 75 | 1013.4 |
| 20260903044503 | 81 | 211 | 1.0 | 4.0 | 0.00 | 0.00 | 0.00 | 75 | 1013.4 |
| 20260903044005 | 81 | 235 | 1.0 | 5.0 | 0.00 | 0.00 | 0.00 | 75 | 1013.5 |
| 20260903042005 | 81 | 246 | 1.0 | 4.0 | 0.00 | 0.00 | 0.00 | 74 | 1013.2 |
| 20260903041503 | 81 | 230 | 1.0 | 5.0 | 0.00 | 0.00 | 0.00 | 74 | 1013.2 |
| 20260903040504 | 81 | 241 | 1.0 | 4.0 | 0.00 | 0.00 | 0.00 | 74 | 1013.0 |
| 20260903040009 | 81 | 240 | 1.0 | 4.0 | 0.00 | 0.00 | 0.00 | 74 | 1013.0 |
| 20260903035504 | 81 | 242 | 2.0 | 4.0 | 0.00 | 0.00 | 0.00 | 74 | 1013.0 |
| 20260903035004 | 81 | 244 | 2.0 | 5.0 | 0.00 | 0.00 | 0.00 | 74 | 1012.8 |
| 20260903034504 | 81 | 245 | 1.0 | 5.0 | 0.00 | 0.00 | 0.00 | 74 | 1012.8 |
| 20260903034005 | 82 | 258 | 1.0 | 4.0 | 0.00 | 0.00 | 0.00 | 73 | 1012.6 |
| 20260903033504 | 82 | 265 | 1.0 | 3.0 | 0.00 | 0.00 | 0.00 | 73 | 1012.6 |
| 20260903033005 | 82 | 246 | 1.0 | 4.0 | 0.00 | 0.00 | 0.00 | 73 | 1012.6 |
| 20260903032503 | 82 | 241 | 1.0 | 4.0 | 0.00 | 0.00 | 0.00 | 73 | 1012.7 |
| 20260903032004 | 82 | 245 | 2.0 | 4.0 | 0.00 | 0.00 | 0.00 | 73 | 1012.8 |
| 20260903031504 | 82 | 241 | 2.0 | 4.0 | 0.00 | 0.00 | 0.00 | 73 | 1012.9 |
| 20260903031004 | 82 | 228 | 2.0 | 8.0 | 0.00 | 0.00 | 0.00 | 73 | 1013.1 |
| 20260903030504 | 82 | 223 | 2.0 | 8.0 | 0.00 | 0.00 | 0.00 | 73 | 1013.2 |
| 20260903030004 | 82 | 217 | 1.0 | 4.0 | 0.00 | 0.00 | 0.00 | 73 | 1013.4 |
| 20260903025504 | 82 | 228 | 1.0 | 4.0 | 0.00 | 0.00 | 0.00 | 73 | 1013.5 |
| 20260903025004 | 82 | 235 | 1.0 | 4.0 | 0.00 | 0.00 | 0.00 | 73 | 1013.6 |
| 20260903024503 | 82 | 238 | 1.0 | 3.0 | 0.00 | 0.00 | 0.00 | 73 | 1013.6 |
| 20260903024005 | 82 | 240 | 2.0 | 5.0 | 0.00 | 0.00 | 0.00 | 73 | 1013.7 |
| 20260903023503 | 82 | 230 | 2.0 | 5.0 | 0.00 | 0.00 | 0.00 | 72 | 1013.6 |
| 20260903023005 | 82 | 228 | 2.0 | 5.0 | 0.00 | 0.00 | 0.00 | 73 | 1013.8 |
| 20260903022004 | 82 | 237 | 1.0 | 3.0 | 0.00 | 0.00 | 0.00 | 73 | 1013.7 |
| 20260903021504 | 83 | 237 | 1.0 | 3.0 | 0.00 | 0.00 | 0.00 | 73 | 1013.7 |
| 20260903020504 | 83 | 236 | 0.0 | 4.0 | 0.00 | 0.00 | 0.00 | 72 | 1013.7 |
| 20260903020004 | 83 | 0 | 0.0 | 0.0 | 0.00 | 0.00 | 0.00 | 72 | 1013.7 |
| 20260903015504 | 83 | 0 | 0.0 | 0.0 | 0.00 | 0.00 | 0.00 | 71 | 1013.8 |
| 20260903015004 | 83 | 0 | 0.0 | 0.0 | 0.00 | 0.00 | 0.00 | 71 | 1013.7 |
| 20260903014504 | 84 | 0 | 0.0 | 0.0 | 0.00 | 0.00 | 0.00 | 71 | 1013.7 |
| 20260903014004 | 84 | 0 | 0.0 | 0.0 | 0.00 | 0.00 | 0.00 | 70 | 1013.8 |
| 20260903013504 | 84 | 0 | 0.0 | 0.0 | 0.00 | 0.00 | 0.00 | 70 | 1013.9 |
| 20260903013004 | 84 | 0 | 0.0 | 0.0 | 0.00 | 0.00 | 0.00 | 70 | 1013.9 |
| 20260903012504 | 84 | 236 | 0.0 | 1.0 | 0.00 | 0.00 | 0.00 | 70 | 1014.0 |
| 20260903012004 | 84 | 237 | 0.0 | 2.0 | 0.00 | 0.00 | 0.00 | 69 | 1013.9 |
| 20260903011504 | 84 | 237 | 0.0 | 2.0 | 0.00 | 0.00 | 0.00 | 69 | 1013.9 |
| 20260903011004 | 85 | 0 | 0.0 | 0.0 | 0.00 | 0.00 | 0.00 | 69 | 1013.9 |
| 20260903010504 | 85 | 0 | 0.0 | 0.0 | 0.00 | 0.00 | 0.00 | 68 | 1013.8 |
| 20260903010004 | 85 | 0 | 0.0 | 0.0 | 0.00 | 0.00 | 0.00 | 68 | 1013.8 |
| 20260903005504 | 86 | 0 | 0.0 | 0.0 | 0.00 | 0.00 | 0.00 | 67 | 1013.8 |
| 20260903005004 | 86 | 0 | 0.0 | 0.0 | 0.00 | 0.00 | 0.00 | 67 | 1013.7 |
| 20260903004504 | 86 | 0 | 0.0 | 0.0 | 0.00 | 0.00 | 0.00 | 66 | 1013.8 |
| 20260903004004 | 86 | 236 | 0.0 | 3.0 | 0.00 | 0.00 | 0.00 | 66 | 1013.6 |
| 20260903003504 | 86 | 237 | 0.0 | 3.0 | 0.00 | 0.00 | 0.00 | 66 | 1013.5 |
| 20260903003004 | 86 | 237 | 0.0 | 2.0 | 0.00 | 0.00 | 0.00 | 65 | 1013.4 |
| 20260903002504 | 86 | 0 | 0.0 | 0.0 | 0.00 | 0.00 | 0.00 | 65 | 1013.4 |
| 20260903002004 | 87 | 0 | 0.0 | 0.0 | 0.00 | 0.00 | 0.00 | 65 | 1013.3 |
| 20260903001504 | 87 | 0 | 0.0 | 0.0 | 0.00 | 0.00 | 0.00 | 65 | 1013.2 |
| 20260903000504 | 87 | 227 | 1.0 | 3.0 | 0.00 | 0.00 | 0.00 | 64 | 1013.2 |
| 20260903000005 | 87 | 227 | 1.0 | 3.0 | 0.00 | 0.00 | 0.00 | 64 | 1013.2 |
| 20260902235503 | 87 | 226 | 1.0 | 4.0 | 0.00 | 0.00 | 0.00 | 64 | 1013.2 |
| 20260902235006 | 88 | 237 | 2.0 | 4.0 | 0.00 | 0.00 | 0.00 | 64 | 1013.2 |
| 20260902234503 | 88 | 244 | 1.0 | 6.0 | 0.00 | 0.00 | 0.00 | 64 | 1013.3 |
| 20260902234005 | 88 | 238 | 0.0 | 6.0 | 0.00 | 0.00 | 0.00 | 63 | 1013.3 |
| 20260902233503 | 88 | 0 | 0.0 | 0.0 | 0.00 | 0.00 | 0.00 | 63 | 1013.2 |
| 20260902233004 | 88 | 0 | 0.0 | 0.0 | 0.00 | 0.00 | 0.00 | 63 | 1013.2 |
| 20260902232504 | 88 | 0 | 0.0 | 0.0 | 0.00 | 0.00 | 0.00 | 63 | 1013.3 |
| 20260902232005 | 89 | 236 | 1.0 | 3.0 | 0.00 | 0.00 | 0.00 | 62 | 1013.2 |
| 20260902230504 | 89 | 239 | 2.0 | 4.0 | 0.00 | 0.00 | 0.00 | 61 | 1013.4 |
| 20260902225004 | 89 | 242 | 2.0 | 10.0 | 0.00 | 0.00 | 0.00 | 60 | 1013.4 |
| 20260902223504 | 90 | 244 | 1.0 | 5.0 | 0.00 | 0.00 | 0.00 | 59 | 1013.4 |
| 20260902223005 | 90 | 248 | 1.0 | 5.0 | 0.00 | 0.00 | 0.00 | 58 | 1013.4 |
| 20260902222504 | 90 | 243 | 2.0 | 5.0 | 0.00 | 0.00 | 0.00 | 57 | 1013.2 |
| 20260902222004 | 90 | 243 | 2.0 | 5.0 | 0.00 | 0.00 | 0.00 | 57 | 1013.2 |
| 20260902221504 | 90 | 237 | 3.0 | 5.0 | 0.00 | 0.00 | 0.00 | 56 | 1013.2 |
| 20260902221005 | 90 | 233 | 3.0 | 8.0 | 0.00 | 0.00 | 0.00 | 56 | 1013.2 |
| 20260902220503 | 90 | 238 | 3.0 | 8.0 | 0.00 | 0.00 | 0.00 | 56 | 1013.1 |
| 20260902220004 | 91 | 242 | 3.0 | 13.0 | 0.00 | 0.00 | 0.00 | 56 | 1013.2 |
| 20260902215504 | 91 | 246 | 2.0 | 13.0 | 0.00 | 0.00 | 0.00 | 56 | 1013.2 |
| 20260902215004 | 91 | 250 | 2.0 | 8.0 | 0.00 | 0.00 | 0.00 | 57 | 1013.3 |
| 20260902214504 | 91 | 244 | 2.0 | 10.0 | 0.00 | 0.00 | 0.00 | 57 | 1013.3 |
| 20260902214017 | 91 | 242 | 3.0 | 13.0 | 0.00 | 0.00 | 0.00 | 57 | 1013.2 |
| 20260902213505 | 91 | 236 | 3.0 | 13.0 | 0.00 | 0.00 | 0.00 | 57 | 1013.3 |
| 20260902213007 | 91 | 222 | 2.0 | 8.0 | 0.00 | 0.00 | 0.00 | 59 | 1013.4 |
| 20260902212504 | 91 | 217 | 2.0 | 6.0 | 0.00 | 0.00 | 0.00 | 58 | 1013.3 |
| 20260902212004 | 91 | 223 | 3.0 | 8.0 | 0.00 | 0.00 | 0.00 | 59 | 1013.4 |
| 20260902211504 | 91 | 229 | 3.0 | 8.0 | 0.00 | 0.00 | 0.00 | 59 | 1013.5 |
| 20260902211005 | 91 | 230 | 2.0 | 9.0 | 0.00 | 0.00 | 0.00 | 59 | 1013.5 |
| 20260902210504 | 91 | 223 | 2.0 | 10.0 | 0.00 | 0.00 | 0.00 | 59 | 1013.6 |
| 20260902210004 | 91 | 214 | 2.0 | 10.0 | 0.00 | 0.00 | 0.00 | 59 | 1013.7 |
| 20260902205504 | 91 | 219 | 3.0 | 7.0 | 0.00 | 0.00 | 0.00 | 59 | 1013.8 |
| 20260902205004 | 92 | 228 | 3.0 | 10.0 | 0.00 | 0.00 | 0.00 | 60 | 1013.7 |
| 20260902204504 | 92 | 230 | 4.0 | 10.0 | 0.00 | 0.00 | 0.00 | 59 | 1013.7 |
| 20260902204005 | 92 | 229 | 4.0 | 9.0 | 0.00 | 0.00 | 0.00 | 59 | 1013.8 |
| 20260902203504 | 92 | 233 | 2.0 | 8.0 | 0.00 | 0.00 | 0.00 | 60 | 1013.9 |
| 20260902203004 | 92 | 229 | 3.0 | 10.0 | 0.00 | 0.00 | 0.00 | 60 | 1013.8 |
| 20260902202504 | 92 | 221 | 3.0 | 10.0 | 0.00 | 0.00 | 0.00 | 58 | 1013.9 |
| 20260902202004 | 92 | 218 | 3.0 | 8.0 | 0.00 | 0.00 | 0.00 | 58 | 1013.9 |
| 20260902201504 | 93 | 213 | 3.0 | 8.0 | 0.00 | 0.00 | 0.00 | 58 | 1014.0 |
| 20260902201005 | 93 | 225 | 2.0 | 9.0 | 0.00 | 0.00 | 0.00 | 58 | 1014.2 |
| 20260902200503 | 93 | 236 | 3.0 | 9.0 | 0.00 | 0.00 | 0.00 | 57 | 1014.2 |
| 20260902195503 | 94 | 230 | 3.0 | 10.0 | 0.00 | 0.00 | 0.00 | 55 | 1014.2 |
| 20260902195004 | 94 | 218 | 2.0 | 8.0 | 0.00 | 0.00 | 0.00 | 56 | 1014.2 |
| 20260902194005 | 95 | 240 | 3.0 | 10.0 | 0.00 | 0.00 | 0.00 | 55 | 1014.3 |
| 20260902193504 | 95 | 239 | 3.0 | 10.0 | 0.00 | 0.00 | 0.00 | 55 | 1014.2 |
| 20260902193004 | 95 | 224 | 2.0 | 9.0 | 0.00 | 0.00 | 0.00 | 56 | 1014.3 |
| 20260902192504 | 95 | 217 | 3.0 | 8.0 | 0.00 | 0.00 | 0.00 | 54 | 1014.3 |
| 20260902192004 | 95 | 216 | 3.0 | 8.0 | 0.00 | 0.00 | 0.00 | 53 | 1014.5 |
| 20260902191504 | 96 | 231 | 2.0 | 4.0 | 0.00 | 0.00 | 0.00 | 53 | 1014.5 |
| 20260902191004 | 96 | 227 | 2.0 | 7.0 | 0.00 | 0.00 | 0.00 | 52 | 1014.6 |